User: anonymous   Login
Location: Ostrava
(49.8330°N, 18.2830°E)
Time: 15:06:47
(UTC+02:00)
Language:

Explorer 7 - Orbit

View from above orbital plane
View from above orbital plane
View from above satellite
View from above satellite

Ground track
Ground track

The orbit data is extracted from the following two-line orbital elements,

1 00022U 59009A   16243.16067309  .00000845  00000-0  88223-4 0  9999
2 00022  50.2844 125.1962 0143487   3.4042 356.7848 14.93674059 17844
Epoch (UTC): 30 August 2016 03:51:22
Eccentricity: 0.0143487
inclination: 50.2844°
perigee height: 486 km
apogee height: 686 km
right ascension of ascending node: 125.1962°
argument of perigee: 3.4042°
revolutions per day: 14.93674059
mean anomaly at epoch: 356.7848°
orbit number at epoch: 1784

The dashed part of the orbit path shows where the satellite is in the earth's shadow,  

DLR